Weather History for Central Park, NY

Change the Weather History Date:

Friday, September 20, 2013

  Actual Average Record
Temperature  
Mean Temperature 70 °F 66 °F  
Max Temperature 79 °F 74 °F 93 °F (1983)
Min Temperature 60 °F 59 °F 44 °F (1993)
Degree Days  
Heating Degree Days 0 2  
Month to date heating degree days 17 13  
Since 1 July heating degree days 17 15  
Cooling Degree Days 5 3  
Month to date cooling degree days 127 110  
Year to date cooling degree days 1220 1064  
Growing Degree Days 19 (Base 50)    
Moisture  
Dew Point 54 °F    
Average Humidity 60    
Maximum Humidity 78    
Minimum Humidity 42    
Precipitation  
Precipitation 0.00 in 0.15 in 2.32 in (1989)
Month to date precipitation 1.78 2.77  
Year to date precipitation 36.79 36.01  
Snow  
Snow 0.00 in 0.00 in 0.00 in (2002)
Month to date snowfall 0.0 0.0  
Since 1 July snowfall 0.0 0.0  
Snow Depth 0.00 in    
Sea Level Pressure  
Sea Level Pressure 30.05 in    
Wind  
Wind Speed 3 mph (West)    
Max Wind Speed 9 mph    
Max Gust Speed 16 mph    
Visibility 10 miles    
Events      
T = Trace of Precipitation, MM = Missing Value Source: NWS Daily Summary

Daily Weather History Graph

Daily Weather History Graph

Search for Another Location

Airport:

Trip Planner

Search our weather history database for the weather conditions in past years. The results will help you decide how hot, cold, wet, or windy it might be!

Date:

Astronomy

Sep. 20, 2013 Rise Set
Actual Time 6:41 AM EDT 6:56 PM EDT
Civil Twilight 6:14 AM EDT 7:23 PM EDT
Nautical Twilight 5:42 AM EDT 7:55 PM EDT
Astronomical Twilight 5:09 AM EDT 8:28 PM EDT
Moon 7:27 PM EDT (9/20) 7:54 AM EDT (9/20)
Length of Visible Light 13h 09m
Length of Day
12h 14m
Full, 98% of the Moon is Illuminated
Sep 20
Full
Sep 26
Last Quarter
Oct 4
New
Oct 11
First Quarter
Oct 18
Full

Hourly Weather History & Observations

Time (EDT) Temp. Dew Point Humidity Pressure Visibility Wind Dir Wind Speed Gust Speed Precip Events Conditions
12:51 AM 63.0 °F 53.1 °F 70% 30.08 in 10.0 mi Variable 3.5 mph - N/A   Clear
1:51 AM 62.1 °F 53.1 °F 72% 30.08 in 10.0 mi North - - N/A   Clear
2:51 AM 62.1 °F 53.1 °F 72% 30.09 in 10.0 mi West 5.8 mph - N/A   Clear
3:51 AM 61.0 °F 53.1 °F 75% 30.09 in 10.0 mi West 4.6 mph - N/A   Clear
4:51 AM 61.0 °F 53.1 °F 75% 30.08 in 10.0 mi Variable 3.5 mph - N/A   Clear
5:51 AM 60.1 °F 53.1 °F 78% 30.08 in 10.0 mi Calm Calm - N/A   Clear
6:51 AM 60.1 °F 54.0 °F 80% 30.09 in 9.0 mi WSW 5.8 mph - N/A   Clear
7:51 AM 62.1 °F 54.0 °F 75% 30.09 in 9.0 mi Calm Calm - N/A   Clear
8:51 AM 66.9 °F 54.0 °F 63% 30.09 in 8.0 mi Calm Calm - N/A   Clear
9:51 AM 68.0 °F 55.0 °F 63% 30.09 in 8.0 mi Variable 3.5 mph - N/A   Clear
10:51 AM 72.0 °F 55.0 °F 55% 30.09 in 8.0 mi West 4.6 mph - N/A   Clear
11:51 AM 75.0 °F 55.0 °F 50% 30.07 in 9.0 mi Calm Calm - N/A   Clear
12:51 PM 78.1 °F 54.0 °F 43% 30.06 in 10.0 mi Calm Calm - N/A   Clear
1:51 PM 78.1 °F 54.0 °F 43% 30.04 in 10.0 mi West 4.6 mph - N/A   Clear
2:51 PM 78.1 °F 54.0 °F 43% 30.02 in 10.0 mi Calm Calm - N/A   Clear
3:51 PM 75.9 °F 54.0 °F 46% 30.02 in 10.0 mi Variable 5.8 mph - N/A   Clear
4:51 PM 73.0 °F 54.0 °F 51% 30.02 in 10.0 mi Variable 4.6 mph - N/A   Clear
5:51 PM 71.1 °F 54.0 °F 55% 30.02 in 10.0 mi Variable 4.6 mph - N/A   Clear
6:51 PM 68.0 °F 55.0 °F 63% 30.01 in 10.0 mi Calm Calm - N/A   Clear
7:51 PM 66.9 °F 55.9 °F 68% 30.01 in 10.0 mi Variable 4.6 mph - N/A   Clear
8:51 PM 66.9 °F 55.9 °F 68% 30.01 in 10.0 mi Variable 5.8 mph - N/A   Clear
9:51 PM 66.0 °F 57.0 °F 73% 30.01 in 10.0 mi Variable 3.5 mph - N/A   Clear
10:51 PM 64.9 °F 57.0 °F 75% 30.02 in 10.0 mi Variable 3.5 mph - N/A   Clear
11:51 PM 64.9 °F 57.0 °F 75% 30.02 in 10.0 mi Variable 3.5 mph - N/A   Clear